This demonstration page uses our WeatherBlox Daily Observations layout. Learn more.

Left ArrowRight Arrow

36.17497, -115.13722

Hourly Observations for May 23, 2017

Temp ( °F °C ) Dew Point ( °F °C ) Humidity (%) Winds ( mph kmh ) Pressure ( in mb ) Visibility ( mi km ) Precip ( " mm )
12:53 am 00:53 Clear 78 25.6 33 0.6 19 19 NNW 7 11 29.92 1013 10 16 0.00 0.00
1:53 am 01:53 Clear 76 24.4 36 2.2 23 23 NW 5 7 29.92 1013 10 16 0.00 0.00
2:53 am 02:53 Clear 76 24.4 35 1.7 23 23 NW 3 6 29.92 1013 10 16 0.00 0.00
3:53 am 03:53 Clear 74 23.3 36 2.2 25 25 WSW 5 7 29.94 1014 10 16 0.00 0.00
4:53 am 04:53 Clear 74 23.3 34 1.1 23 23 SW 6 9 29.96 1014 10 16 0.00 0.00
5:53 am 05:53 Sunny 75 23.9 32 0 21 21 SSW 6 9 29.97 1015 10 16 0.00 0.00
6:53 am 06:53 Sunny 77 25 31 -0.6 18 18 S 7 11 29.99 1016 10 16 0.00 0.00
7:53 am 07:53 Sunny 79 26.1 32 0 18 18 SSW 3 6 30.00 1016 10 16 0.00 0.00
8:53 am 08:53 Sunny 83 28.3 31 -0.6 15 15 SSE 7 11 30.01 1016 10 16 0.00 0.00
9:53 am 09:53 Sunny 86 30 28 -2.2 12 12 VRB 3 6 30.00 1016 10 16 0.00 0.00
10:53 am 10:53 Sunny 89 31.7 27 -2.8 11 11 Calm 29.98 1015 10 16 0.00 0.00
11:53 am 11:53 Sunny 92 33.3 25 -3.9 9 9 SE 8 13 29.96 1015 10 16 0.00 0.00
12:53 pm 12:53 Sunny 93 33.9 26 -3.3 9 9 VRB 7 11 29.93 1014 10 16 0.00 0.00
1:53 pm 13:53 Sunny 95 35 25 -3.9 8 8 ESE 3 6 29.91 1013 10 16 0.00 0.00
2:53 pm 14:53 Sunny 97 36.1 25 -3.9 7 7 SE 10 17 29.88 1012 10 16 0.00 0.00
3:53 pm 15:53 Sunny 99 37.2 25 -3.9 7 7 ENE 7 11 29.85 1011 10 16 0.00 0.00
4:53 pm 16:53 Sunny 98 36.7 24 -4.4 7 7 Calm 29.82 1010 10 16 0.00 0.00
5:53 pm 17:53 Sunny 99 37.2 23 -5 6 6 undefined N/A 29.80 1009 10 16 0.00 0.00
6:53 pm 18:53 Sunny 97 36.1 24 -4.4 7 7 Calm 29.78 1009 10 16 0.00 0.00
7:53 pm 19:53 Clear 96 35.6 25 -3.9 8 8 S 3 6 29.78 1009 8 13 0.00 0.00
8:53 pm 20:53 Clear 92 33.3 27 -2.8 10 10 SW 7 11 29.79 1009 10 16 0.00 0.00
9:53 pm 21:53 Clear 90 32.2 26 -3.3 10 10 SE 7 11 29.80 1009 10 16 0.00 0.00
10:53 pm 22:53 Clear 87 30.6 27 -2.8 11 11 N 5 7 29.79 1009 10 16 0.00 0.00
11:53 pm 23:53 Clear 81 27.2 32 0 17 17 NW 6 9 29.79 1009 10 16 0.00 0.00

Powered by AerisWeather